{"data":{"norad_id":62032,"epoch":"2026-09-21T14:38:25.439424Z","epoch_age_seconds":89622,"freshness":"FRESH","line1":"1 62032U 24216A   26264.61001666  .00007815  00000+0  29322-3 0  9995","line2":"2 62032  43.0014 229.4779 0001606 267.4382  92.6286 15.27579803103848","mean_motion":15.27579803,"eccentricity":0.0001606,"inclination_deg":43.0014,"raan_deg":229.4779,"arg_perigee_deg":267.4382,"mean_anomaly_deg":92.6286,"bstar":0.00029322,"rev_number":10384,"period_min":94.266760870496,"perigee_km":481.94777934683,"apogee_km":484.15159251035,"semimajor_km":6861.1866859286,"source":"CELESTRAK","updated_at":"2026-09-22T09:00:49.486207Z"}}